sat.trackr.live / text

‹ back to catalog

STARLINK-37501

NORAD 69296 · 2026-119A

PAYLOAD ACTIVE UNKNOWN

§ Identity

Operator
Country
US
Launch date
2026-05-30
Launch site
AFWTR
Launch vehicle
Mass (kg)
RCS (m²)

Purposes: comms

External: N2YO · Heavens-Above · Gunter

§ Orbital elements

Epoch: 2026-09-20T00:08:20.160960Z

Period
93.91 min
Inclination
97.2839°
Eccentricity
0.0001200
Mean motion
15.33453543 rev/d
Perigee alt
464.7 km
Apogee alt
466.3 km
Semi-major
6,843.7 km
B*
3.6362e-4
RAAN
287.6870°
Arg perigee
89.5546°
Mean anomaly
270.5834°
Rev number
1,858

§ Raw data

STARLINK-375011 69296U 26119A   26263.00578890  .00011685  00000+0  36362-3 0  99902 69296  97.2839 287.6870 0001200  89.5546 270.5834 15.33453543 18587

JSON: /api/v1/satellites/69296 · /tle

For live sub-satellite position, see the globe view (requires WebGL).

§ Visibility from observer

Set your observer location to see the next 7 days of passes ≥ 10°. The values pass through the URL so the page stays shareable.

No JS? Fill the form by hand. The geolocation button needs JavaScript.